This is the latest recevied weather packets stored in our database for station/object WA6TJQ. If no packets are shown the sender has not sent any weather packets the latest 10 day(s).
| Time | Temp. | Humidity | Pressure | Rain* | Wind** | Luminosity | Snow |
|---|---|---|---|---|---|---|---|
| 1777783428 | 12.22° C | 38% | 1010.3 hPa | 0 mm | - | - | - |
| 1777783128 | 12.22° C | 36% | 1010.1 hPa | 0 mm | - | - | - |
| 1777782828 | 12.22° C | 36% | 1010.1 hPa | 0 mm | - | - | - |
| 1777782528 | 12.22° C | 35% | 1010 hPa | 0 mm | - | - | - |
| 1777782228 | 12.22° C | 35% | 1010.1 hPa | 0 mm | - | - | - |
| 1777781928 | 12.22° C | 39% | 1010.1 hPa | 0 mm | - | - | - |
| 1777781628 | 12.22° C | 38% | 1010 hPa | 0 mm | - | - | - |
| 1777781328 | 12.22° C | 37% | 1010 hPa | 0 mm | - | - | - |
| 1777781028 | 12.22° C | 37% | 1009.9 hPa | 0 mm | - | - | - |
| 1777780728 | 12.22° C | 37% | 1009.9 hPa | 0 mm | - | - | - |
| 1777780428 | 12.22° C | 36% | 1009.9 hPa | 0 mm | - | - | - |
| 1777780127 | 12.22° C | 37% | 1009.8 hPa | 0 mm | - | - | - |
| 1777779828 | 12.22° C | 38% | 1009.8 hPa | 0 mm | - | - | - |
| 1777779528 | 12.22° C | 34% | 1009.7 hPa | 0 mm | - | - | - |
| 1777779228 | 12.22° C | 33% | 1009.7 hPa | 0 mm | - | - | - |
| 1777778927 | 12.22° C | 33% | 1009.7 hPa | 0 mm | - | - | - |
| 1777778627 | 12.22° C | 34% | 1009.8 hPa | 0 mm | - | - | - |
| 1777778327 | 12.78° C | 34% | 1009.8 hPa | 0 mm | - | - | - |
| 1777778027 | 12.78° C | 36% | 1009.7 hPa | 0 mm | - | - | - |
| 1777777727 | 12.78° C | 35% | 1009.6 hPa | 0 mm | - | - | - |
| 1777777427 | 12.78° C | 35% | 1009.7 hPa | 0 mm | - | - | - |
| 1777777127 | 12.78° C | 36% | 1009.7 hPa | 0 mm | - | - | - |
| 1777776827 | 12.78° C | 36% | 1009.6 hPa | 0 mm | - | - | - |
| 1777776527 | 13.33° C | 37% | 1009.6 hPa | 0 mm | - | - | - |
| 1777776227 | 13.33° C | 37% | 1009.5 hPa | 0 mm | - | - | - |
* Rain latest hour (hover to see other rain measurements)
** Current wind speed in m/s (hover to see current wind gust speed)